| time (UTC) | temp C | wind direction | speed KPH | gust KPH | rain 1hr cm | rain 24hr cm | rain mn cm | humidity % | barometer mb |
| 20260508064850 | 11 | 50 | 9.7 | 16.1 | 0.00 | 0.00 | 0.00 | 78 | 1011.4 |
| 20260508064350 | 11 | 49 | 8.0 | 12.9 | 0.00 | 0.00 | 0.00 | 77 | 1011.4 |
| 20260508063854 | 11 | 54 | 8.0 | 12.9 | 0.00 | 0.00 | 0.00 | 78 | 1011.6 |
| 20260508063354 | 11 | 49 | 4.8 | 8.0 | 0.00 | 0.00 | 0.00 | 77 | 1011.7 |
| 20260508062856 | 11 | 49 | 4.8 | 9.7 | 0.00 | 0.00 | 0.00 | 77 | 1011.7 |
| 20260508062355 | 11 | 48 | 4.8 | 9.7 | 0.00 | 0.00 | 0.00 | 77 | 1011.7 |
| 20260508061900 | 11 | 47 | 6.4 | 11.3 | 0.00 | 0.00 | 0.00 | 77 | 1011.6 |
| 20260508061401 | 11 | 46 | 6.4 | 12.9 | 0.00 | 0.00 | 0.00 | 77 | 1011.4 |
| 20260508060901 | 11 | 50 | 8.0 | 12.9 | 0.00 | 0.00 | 0.00 | 77 | 1011.3 |
| 20260508060344 | 11 | 45 | 8.0 | 9.7 | 0.00 | 0.00 | 0.00 | 76 | 1011.3 |
| 20260508055847 | 11 | 49 | 4.8 | 11.3 | 0.00 | 0.00 | 0.00 | 76 | 1011.3 |
| 20260508055346 | 11 | 47 | 8.0 | 11.3 | 0.00 | 0.00 | 0.00 | 77 | 1011.2 |
| 20260508054848 | 11 | 44 | 6.4 | 9.7 | 0.00 | 0.00 | 0.00 | 77 | 1011.3 |
| 20260508054349 | 11 | 45 | 6.4 | 9.7 | 0.00 | 0.00 | 0.00 | 78 | 1011.3 |
| 20260508053852 | 11 | 44 | 6.4 | 9.7 | 0.00 | 0.00 | 0.00 | 78 | 1011.2 |
| 20260508052859 | 11 | 45 | 6.4 | 11.3 | 0.00 | 0.00 | 0.00 | 78 | 1011.4 |
| 20260508052343 | 11 | 44 | 8.0 | 11.3 | 0.00 | 0.00 | 0.00 | 78 | 1011.4 |
| 20260508051844 | 11 | 29 | 4.8 | 8.0 | 0.00 | 0.00 | 0.00 | 79 | 1011.4 |
| 20260508051345 | 11 | 29 | 3.2 | 6.4 | 0.00 | 0.00 | 0.00 | 78 | 1011.5 |
| 20260508050850 | 11 | 29 | 4.8 | 6.4 | 0.00 | 0.00 | 0.00 | 78 | 1011.5 |
| 20260508050350 | 11 | 29 | 3.2 | 9.7 | 0.00 | 0.00 | 0.00 | 77 | 1011.4 |
| 20260508045851 | 11 | 29 | 4.8 | 9.7 | 0.00 | 0.00 | 0.00 | 77 | 1011.4 |
| 20260508044854 | 11 | 27 | 1.6 | 9.7 | 0.00 | 0.00 | 0.00 | 78 | 1011.4 |
| 20260508044354 | 11 | 27 | 1.6 | 9.7 | 0.00 | 0.00 | 0.00 | 78 | 1011.6 |
| 20260508043856 | 11 | 26 | 0.0 | 6.4 | 0.00 | 0.00 | 0.00 | 79 | 1011.5 |
| 20260508042350 | 11 | 10 | 3.2 | 4.8 | 0.00 | 0.00 | 0.00 | 79 | 1011.3 |
| 20260508041854 | 11 | 10 | 1.6 | 6.4 | 0.00 | 0.00 | 0.00 | 79 | 1011.3 |
| 20260508041354 | 11 | 10 | 1.6 | 8.0 | 0.00 | 0.00 | 0.00 | 79 | 1011.1 |
| 20260508040852 | 11 | 9 | 4.8 | 9.7 | 0.00 | 0.00 | 0.00 | 79 | 1011.1 |
| 20260508040357 | 11 | 9 | 6.4 | 9.7 | 0.00 | 0.00 | 0.00 | 80 | 1011.1 |
| 20260508035857 | 11 | 14 | 4.8 | 6.4 | 0.00 | 0.00 | 0.00 | 80 | 1011.1 |
| 20260508035359 | 10 | 14 | 1.6 | 6.4 | 0.00 | 0.00 | 0.00 | 80 | 1011.1 |
| 20260508034901 | 10 | 14 | 3.2 | 6.4 | 0.00 | 0.00 | 0.00 | 81 | 1011.0 |
| 20260508034402 | 10 | 14 | 3.2 | 6.4 | 0.00 | 0.00 | 0.00 | 81 | 1011.0 |
| 20260508033842 | 10 | 14 | 4.8 | 6.4 | 0.00 | 0.00 | 0.00 | 81 | 1010.9 |
| 20260508032845 | 10 | 14 | 4.8 | 6.4 | 0.00 | 0.00 | 0.00 | 81 | 1011.1 |
| 20260508031854 | 10 | 14 | 3.2 | 8.0 | 0.00 | 0.00 | 0.00 | 82 | 1011.2 |
| 20260508031353 | 10 | 14 | 3.2 | 8.0 | 0.00 | 0.00 | 0.00 | 82 | 1011.2 |
| 20260508030357 | 10 | 14 | 4.8 | 6.4 | 0.00 | 0.00 | 0.00 | 82 | 1011.1 |
| 20260508025858 | 10 | 14 | 3.2 | 8.0 | 0.00 | 0.00 | 0.00 | 82 | 1011.1 |
| 20260508025358 | 10 | 14 | 4.8 | 8.0 | 0.00 | 0.00 | 0.00 | 82 | 1011.0 |
| 20260508024902 | 10 | 14 | 4.8 | 8.0 | 0.00 | 0.00 | 0.00 | 82 | 1011.0 |
| 20260508024401 | 10 | 13 | 6.4 | 8.0 | 0.00 | 0.00 | 0.00 | 82 | 1011.0 |
| 20260508023902 | 10 | 13 | 4.8 | 8.0 | 0.00 | 0.00 | 0.00 | 82 | 1011.0 |
| 20260508023401 | 10 | 13 | 6.4 | 8.0 | 0.00 | 0.00 | 0.00 | 82 | 1011.0 |
| 20260508022844 | 10 | 14 | 4.8 | 9.7 | 0.00 | 0.00 | 0.00 | 82 | 1011.0 |
| 20260508022345 | 10 | 15 | 6.4 | 11.3 | 0.00 | 0.00 | 0.00 | 82 | 1011.0 |
| 20260508021845 | 10 | 12 | 6.4 | 11.3 | 0.00 | 0.00 | 0.00 | 82 | 1011.0 |
| 20260508021346 | 10 | 16 | 6.4 | 12.9 | 0.00 | 0.00 | 0.00 | 82 | 1010.9 |
| 20260508020848 | 10 | 22 | 8.0 | 12.9 | 0.00 | 0.00 | 0.00 | 82 | 1010.9 |
| 20260508020347 | 10 | 16 | 8.0 | 12.9 | 0.00 | 0.00 | 0.00 | 82 | 1011.0 |
| 20260508015850 | 10 | 17 | 4.8 | 11.3 | 0.00 | 0.00 | 0.00 | 82 | 1011.1 |
| 20260508015350 | 10 | 30 | 6.4 | 12.9 | 0.00 | 0.00 | 0.00 | 82 | 1011.0 |
| 20260508014853 | 10 | 31 | 9.7 | 16.1 | 0.00 | 0.00 | 0.00 | 82 | 1011.1 |
| 20260508014359 | 10 | 35 | 8.0 | 16.1 | 0.00 | 0.00 | 0.00 | 82 | 1011.1 |
| 20260508013902 | 10 | 39 | 11.3 | 14.5 | 0.00 | 0.00 | 0.00 | 82 | 1011.2 |
| 20260508013344 | 10 | 43 | 9.7 | 14.5 | 0.00 | 0.00 | 0.00 | 81 | 1011.3 |
| 20260508012846 | 10 | 53 | 8.0 | 11.3 | 0.00 | 0.00 | 0.00 | 81 | 1011.5 |
| 20260508012347 | 10 | 30 | 6.4 | 11.3 | 0.00 | 0.00 | 0.00 | 81 | 1011.6 |
| 20260508011354 | 10 | 20 | 8.0 | 12.9 | 0.00 | 0.00 | 0.00 | 81 | 1011.5 |
| 20260508010858 | 10 | 20 | 8.0 | 11.3 | 0.00 | 0.00 | 0.00 | 82 | 1011.5 |
| 20260508005841 | 10 | 15 | 6.4 | 9.7 | 0.00 | 0.00 | 0.00 | 81 | 1011.6 |
| 20260508005343 | 10 | 14 | 6.4 | 9.7 | 0.00 | 0.00 | 0.00 | 81 | 1011.6 |
| 20260508004846 | 10 | 13 | 6.4 | 8.0 | 0.00 | 0.00 | 0.00 | 80 | 1011.7 |
| 20260508004347 | 10 | 11 | 4.8 | 8.0 | 0.00 | 0.00 | 0.00 | 80 | 1011.8 |
| 20260508003848 | 10 | 11 | 4.8 | 11.3 | 0.00 | 0.00 | 0.00 | 80 | 1011.9 |
| 20260508003348 | 10 | 11 | 6.4 | 11.3 | 0.00 | 0.00 | 0.00 | 80 | 1011.8 |
| 20260508002849 | 10 | 15 | 8.0 | 9.7 | 0.00 | 0.00 | 0.00 | 80 | 1011.9 |
| 20260508002352 | 10 | 16 | 6.4 | 9.7 | 0.00 | 0.00 | 0.00 | 79 | 1012.0 |
| 20260508001853 | 10 | 17 | 6.4 | 9.7 | 0.00 | 0.00 | 0.00 | 79 | 1012.1 |
| 20260508001355 | 10 | 16 | 6.4 | 11.3 | 0.00 | 0.00 | 0.00 | 79 | 1012.1 |
| 20260508000855 | 10 | 15 | 6.4 | 11.3 | 0.00 | 0.00 | 0.00 | 79 | 1012.0 |
| 20260508000357 | 10 | 12 | 8.0 | 11.3 | 0.00 | 0.00 | 0.00 | 78 | 1012.1 |
| 20260507235854 | 10 | 9 | 6.4 | 11.3 | 0.00 | 0.00 | 0.00 | 78 | 1012.1 |
| 20260507235354 | 11 | 9 | 8.0 | 11.3 | 0.00 | 0.00 | 0.00 | 77 | 1012.1 |
| 20260507234858 | 11 | 5 | 6.4 | 9.7 | 0.00 | 0.00 | 0.00 | 77 | 1012.2 |
| 20260507234359 | 11 | 355 | 8.0 | 9.7 | 0.00 | 0.00 | 0.00 | 77 | 1012.3 |
| 20260507233900 | 11 | 355 | 8.0 | 9.7 | 0.00 | 0.00 | 0.00 | 77 | 1012.3 |
| 20260507233358 | 10 | 355 | 6.4 | 11.3 | 0.00 | 0.00 | 0.00 | 77 | 1012.4 |
| 20260507232900 | 11 | 355 | 8.0 | 11.3 | 0.00 | 0.00 | 0.00 | 77 | 1012.4 |
| 20260507232401 | 11 | 355 | 8.0 | 9.7 | 0.00 | 0.00 | 0.00 | 76 | 1012.4 |
| 20260507231902 | 11 | 5 | 6.4 | 9.7 | 0.00 | 0.00 | 0.00 | 76 | 1012.5 |
| 20260507230843 | 11 | 11 | 6.4 | 8.0 | 0.00 | 0.00 | 0.00 | 75 | 1012.6 |
| 20260507230344 | 11 | 11 | 6.4 | 8.0 | 0.00 | 0.00 | 0.00 | 76 | 1012.6 |
| 20260507225844 | 11 | 11 | 6.4 | 6.4 | 0.00 | 0.00 | 0.00 | 76 | 1012.7 |
| 20260507225344 | 11 | 11 | 4.8 | 6.4 | 0.00 | 0.00 | 0.00 | 75 | 1012.7 |
| 20260507224350 | 11 | 11 | 4.8 | 8.0 | 0.00 | 0.00 | 0.00 | 76 | 1012.8 |
| 20260507223849 | 11 | 11 | 4.8 | 8.0 | 0.00 | 0.00 | 0.00 | 77 | 1012.7 |
| 20260507222849 | 11 | 11 | 4.8 | 8.0 | 0.00 | 0.00 | 0.00 | 77 | 1012.6 |
| 20260507222349 | 11 | 11 | 4.8 | 8.0 | 0.00 | 0.00 | 0.00 | 77 | 1012.6 |
| 20260507221850 | 10 | 13 | 6.4 | 8.0 | 0.00 | 0.00 | 0.00 | 77 | 1012.5 |
| 20260507220856 | 10 | 15 | 6.4 | 8.0 | 0.00 | 0.00 | 0.00 | 78 | 1012.5 |
| 20260507220357 | 10 | 19 | 4.8 | 6.4 | 0.00 | 0.00 | 0.00 | 78 | 1012.5 |
| 20260507215402 | 10 | 34 | 3.2 | 4.8 | 0.00 | 0.00 | 0.00 | 77 | 1012.6 |
| 20260507214843 | 10 | 34 | 3.2 | 6.4 | 0.00 | 0.00 | 0.00 | 77 | 1012.6 |
| 20260507214345 | 10 | 34 | 3.2 | 6.4 | 0.00 | 0.00 | 0.00 | 77 | 1012.6 |
| 20260507213350 | 10 | 34 | 1.6 | 3.2 | 0.00 | 0.00 | 0.00 | 77 | 1012.5 |
| 20260507212851 | 10 | 34 | 0.0 | 3.2 | 0.00 | 0.00 | 0.00 | 76 | 1012.4 |
| 20260507212357 | 10 | 34 | 0.0 | 4.8 | 0.00 | 0.00 | 0.00 | 76 | 1012.4 |
| 20260507211900 | 10 | 34 | 1.6 | 4.8 | 0.00 | 0.00 | 0.00 | 75 | 1012.3 |
| 20260507211343 | 11 | 34 | 3.2 | 4.8 | 0.00 | 0.00 | 0.00 | 74 | 1012.2 |
| 20260507210843 | 11 | 34 | 3.2 | 4.8 | 0.00 | 0.00 | 0.00 | 73 | 1012.2 |
| 20260507210346 | 11 | 34 | 3.2 | 4.8 | 0.00 | 0.00 | 0.00 | 74 | 1012.3 |
| 20260507205847 | 11 | 34 | 3.2 | 6.4 | 0.00 | 0.00 | 0.00 | 75 | 1012.1 |
| 20260507205348 | 11 | 34 | 4.8 | 6.4 | 0.00 | 0.00 | 0.00 | 74 | 1012.0 |
| 20260507204357 | 12 | 38 | 0.0 | 0.0 | 0.00 | 0.00 | 0.00 | 72 | 1012.0 |
| 20260507203859 | 12 | 38 | 0.0 | 1.6 | 0.00 | 0.00 | 0.00 | 72 | 1011.9 |
| 20260507202902 | 12 | 38 | 1.6 | 3.2 | 0.00 | 0.00 | 0.00 | 72 | 1011.7 |
| 20260507202401 | 12 | 38 | 0.0 | 3.2 | 0.00 | 0.00 | 0.00 | 73 | 1011.6 |
| 20260507201900 | 12 | 38 | 1.6 | 3.2 | 0.00 | 0.00 | 0.00 | 72 | 1011.4 |
| 20260507200846 | 12 | 38 | 3.2 | 4.8 | 0.00 | 0.00 | 0.00 | 72 | 1011.3 |
| 20260507200350 | 12 | 38 | 3.2 | 4.8 | 0.00 | 0.00 | 0.00 | 71 | 1011.2 |
| 20260507195354 | 12 | 46 | 3.2 | 4.8 | 0.00 | 0.00 | 0.00 | 70 | 1011.0 |
| 20260507194857 | 13 | 46 | 4.8 | 9.7 | 0.00 | 0.00 | 0.00 | 68 | 1010.8 |
| 20260507193859 | 13 | 47 | 8.0 | 9.7 | 0.00 | 0.00 | 0.00 | 66 | 1010.6 |
| 20260507193400 | 13 | 45 | 6.4 | 8.0 | 0.00 | 0.00 | 0.00 | 66 | 1010.5 |
| 20260507192844 | 13 | 45 | 6.4 | 6.4 | 0.00 | 0.00 | 0.00 | 66 | 1010.6 |
| 20260507192344 | 13 | 45 | 4.8 | 8.0 | 0.00 | 0.00 | 0.00 | 66 | 1010.6 |
| 20260507191846 | 13 | 45 | 6.4 | 8.0 | 0.00 | 0.00 | 0.00 | 65 | 1010.5 |
| 20260507190358 | 13 | 44 | 4.8 | 6.4 | 0.00 | 0.00 | 0.00 | 65 | 1010.3 |
| 20260507185858 | 14 | 44 | 3.2 | 8.0 | 0.00 | 0.00 | 0.00 | 64 | 1010.2 |
| 20260507185359 | 14 | 44 | 3.2 | 12.9 | 0.00 | 0.00 | 0.00 | 64 | 1010.0 |
| 20260507184900 | 14 | 44 | 8.0 | 12.9 | 0.00 | 0.00 | 0.00 | 63 | 1009.9 |
| 20260507184400 | 14 | 44 | 6.4 | 12.9 | 0.00 | 0.00 | 0.00 | 64 | 1009.9 |
| 20260507183901 | 14 | 46 | 8.0 | 12.9 | 0.00 | 0.00 | 0.00 | 64 | 1009.9 |
| 20260507183345 | 14 | 39 | 6.4 | 17.7 | 0.00 | 0.00 | 0.00 | 63 | 1009.9 |
| 20260507182846 | 14 | 63 | 8.0 | 19.3 | 0.00 | 0.00 | 0.00 | 63 | 1009.7 |
| 20260507182348 | 14 | 57 | 14.5 | 19.3 | 0.00 | 0.00 | 0.00 | 64 | 1009.6 |
| 20260507181849 | 14 | 69 | 9.7 | 19.3 | 0.00 | 0.00 | 0.00 | 64 | 1009.6 |
| 20260507181351 | 14 | 62 | 12.9 | 19.3 | 0.00 | 0.00 | 0.00 | 62 | 1009.6 |
| 20260507180357 | 15 | 76 | 8.0 | 12.9 | 0.00 | 0.00 | 0.00 | 61 | 1009.6 |
| 20260507175357 | 15 | 53 | 8.0 | 16.1 | 0.00 | 0.00 | 0.00 | 60 | 1009.8 |
| 20260507174843 | 15 | 57 | 11.3 | 17.7 | 0.00 | 0.00 | 0.00 | 60 | 1009.6 |
| 20260507174343 | 15 | 67 | 6.4 | 17.7 | 0.00 | 0.00 | 0.00 | 60 | 1009.6 |
| 20260507173844 | 15 | 73 | 8.0 | 19.3 | 0.00 | 0.00 | 0.00 | 58 | 1009.5 |
| 20260507173347 | 15 | 63 | 9.7 | 20.9 | 0.00 | 0.00 | 0.00 | 58 | 1009.4 |
| 20260507172848 | 15 | 93 | 14.5 | 20.9 | 0.00 | 0.00 | 0.00 | 56 | 1009.5 |
| 20260507172348 | 16 | 57 | 12.9 | 19.3 | 0.00 | 0.00 | 0.00 | 58 | 1009.5 |
| 20260507171850 | 16 | 82 | 9.7 | 17.7 | 0.00 | 0.00 | 0.00 | 56 | 1009.4 |
| 20260507170854 | 16 | 60 | 8.0 | 19.3 | 0.00 | 0.00 | 0.00 | 56 | 1009.3 |
| 20260507170355 | 16 | 58 | 8.0 | 22.5 | 0.00 | 0.00 | 0.00 | 56 | 1009.5 |
| 20260507165856 | 16 | 80 | 14.5 | 22.5 | 0.00 | 0.00 | 0.00 | 57 | 1009.5 |
| 20260507165356 | 15 | 71 | 17.7 | 27.4 | 0.00 | 0.00 | 0.00 | 59 | 1009.5 |
| 20260507164843 | 16 | 66 | 11.3 | 24.1 | 0.00 | 0.00 | 0.00 | 59 | 1009.5 |
| 20260507164346 | 16 | 57 | 9.7 | 27.4 | 0.00 | 0.00 | 0.00 | 59 | 1009.5 |
| 20260507163847 | 15 | 51 | 12.9 | 27.4 | 0.00 | 0.00 | 0.00 | 59 | 1009.5 |
| 20260507163348 | 15 | 51 | 12.9 | 22.5 | 0.00 | 0.00 | 0.00 | 60 | 1009.6 |
| 20260507161858 | 15 | 360 | 16.1 | 27.4 | 0.00 | 0.00 | 0.00 | 61 | 1009.6 |
| 20260507161340 | 15 | 43 | 12.9 | 27.4 | 0.00 | 0.00 | 0.00 | 61 | 1009.6 |
| 20260507160846 | 15 | 74 | 11.3 | 24.1 | 0.00 | 0.00 | 0.00 | 63 | 1009.6 |
| 20260507160350 | 15 | 51 | 12.9 | 24.1 | 0.00 | 0.00 | 0.00 | 62 | 1009.3 |
| 20260507155850 | 15 | 40 | 14.5 | 22.5 | 0.00 | 0.00 | 0.00 | 62 | 1009.3 |
| 20260507154857 | 15 | 57 | 17.7 | 24.1 | 0.00 | 0.00 | 0.00 | 64 | 1009.1 |
| 20260507154357 | 15 | 60 | 16.1 | 25.7 | 0.00 | 0.00 | 0.00 | 64 | 1009.1 |
| 20260507153859 | 15 | 60 | 17.7 | 27.4 | 0.00 | 0.00 | 0.00 | 66 | 1009.2 |
| 20260507153358 | 15 | 58 | 12.9 | 29.0 | 0.00 | 0.00 | 0.00 | 65 | 1009.2 |
| 20260507152856 | 15 | 61 | 14.5 | 29.0 | 0.00 | 0.00 | 0.00 | 65 | 1009.3 |
| 20260507152357 | 15 | 49 | 12.9 | 24.1 | 0.00 | 0.00 | 0.00 | 67 | 1009.3 |
| 20260507151859 | 14 | 53 | 14.5 | 24.1 | 0.00 | 0.00 | 0.00 | 66 | 1009.3 |
| 20260507151358 | 15 | 51 | 14.5 | 27.4 | 0.00 | 0.00 | 0.00 | 68 | 1009.4 |
| 20260507150900 | 15 | 51 | 17.7 | 27.4 | 0.00 | 0.00 | 0.00 | 69 | 1009.5 |
| 20260507145846 | 14 | 47 | 16.1 | 22.5 | 0.00 | 0.00 | 0.00 | 70 | 1009.7 |
| 20260507144850 | 15 | 66 | 17.7 | 25.7 | 0.00 | 0.00 | 0.00 | 68 | 1009.6 |
| 20260507144351 | 15 | 22 | 19.3 | 25.7 | 0.00 | 0.00 | 0.00 | 67 | 1009.6 |
| 20260507143852 | 15 | 71 | 14.5 | 22.5 | 0.00 | 0.00 | 0.00 | 66 | 1009.6 |
| 20260507143356 | 15 | 34 | 12.9 | 25.7 | 0.00 | 0.00 | 0.00 | 66 | 1010.6 |
| 20260507142857 | 15 | 97 | 20.9 | 25.7 | 0.00 | 0.00 | 0.00 | 63 | 1010.7 |
| 20260507142400 | 15 | 64 | 14.5 | 30.6 | 0.00 | 0.00 | 0.00 | 66 | 1010.6 |
| 20260507141901 | 14 | 71 | 22.5 | 32.2 | 0.00 | 0.00 | 0.00 | 64 | 1010.5 |
| 20260507141342 | 14 | 98 | 24.1 | 32.2 | 0.00 | 0.00 | 0.00 | 67 | 1010.5 |
| 20260507140848 | 14 | 59 | 16.1 | 32.2 | 0.00 | 0.00 | 0.00 | 72 | 1010.5 |
| 20260507140351 | 14 | 74 | 20.9 | 32.2 | 0.00 | 0.00 | 0.00 | 72 | 1010.4 |
| 20260507135850 | 15 | 132 | 24.1 | 37.0 | 0.00 | 0.00 | 0.00 | 71 | 1010.6 |
| 20260507135350 | 14 | 81 | 27.4 | 37.0 | 0.00 | 0.00 | 0.00 | 70 | 1010.5 |
| 20260507134355 | 15 | 83 | 24.1 | 38.6 | 0.00 | 0.00 | 0.00 | 68 | 1010.0 |
| 20260507133359 | 16 | 98 | 20.9 | 27.4 | 0.00 | 0.00 | 0.00 | 62 | 1010.1 |
| 20260507132900 | 16 | 74 | 17.7 | 27.4 | 0.00 | 0.00 | 0.00 | 65 | 1010.0 |
| 20260507132401 | 16 | 99 | 20.9 | 25.7 | 0.00 | 0.00 | 0.00 | 60 | 1010.0 |
| 20260507131845 | 17 | 94 | 14.5 | 20.9 | 0.00 | 0.00 | 0.00 | 54 | 1009.8 |
| 20260507131345 | 17 | 73 | 8.0 | 17.7 | 0.00 | 0.00 | 0.00 | 53 | 1009.9 |
| 20260507130847 | 17 | 165 | 6.4 | 12.9 | 0.00 | 0.00 | 0.00 | 52 | 1009.9 |
| 20260507130347 | 18 | 202 | 3.2 | 12.9 | 0.00 | 0.00 | 0.00 | 51 | 1009.9 |
| 20260507125853 | 18 | 185 | 4.8 | 9.7 | 0.00 | 0.00 | 0.00 | 52 | 1009.8 |
| 20260507125353 | 18 | 209 | 0.0 | 4.8 | 0.00 | 0.00 | 0.00 | 52 | 1009.8 |
| 20260507124856 | 18 | 209 | 0.0 | 9.7 | 0.00 | 0.00 | 0.00 | 52 | 1009.7 |